This demonstration page uses our WeatherBlox Daily Observations layout. Learn more.

Left ArrowRight Arrow

Hourly Observations for October 21, 2016

Temp ( °F °C ) Dew Point ( °F °C ) Humidity (%) Winds ( mph kmh ) Pressure ( in mb ) Visibility ( mi km ) Precip ( " mm )
12:15 am 00:15 Mostly Cloudy 72 22 68 20 88 88 S 14 22 29.85 1011 10 16 N/A
12:35 am 00:35 Mostly Cloudy 72 22 68 20 88 88 S 14 22 29.85 1011 10 16 N/A
12:55 am 00:55 Partly Cloudy 72 22 68 20 88 88 S 13 20 29.85 1011 10 16 N/A
1:15 am 01:15 Mostly Cloudy 70 21 68 20 94 94 S 9 15 29.85 1011 10 16 N/A
1:35 am 01:35 Cloudy 70 21 68 20 94 94 S 7 11 29.85 1011 10 16 N/A
1:55 am 01:55 Mostly Cloudy 70 21 68 20 94 94 SSE 7 11 29.85 1011 10 16 N/A
2:15 am 02:15 Cloudy 70 21 68 20 94 94 SSE 7 11 29.83 1010 10 16 N/A
2:35 am 02:35 Mostly Cloudy 70 21 68 20 94 94 SSE 5 7 29.83 1010 10 16 N/A
2:55 am 02:55 Mostly Cloudy 70 21 68 20 94 94 SSE 5 7 29.83 1010 10 16 N/A
3:15 am 03:15 Cloudy 70 21 68 20 94 94 SSE 3 6 29.80 1009 10 16 N/A
3:35 am 03:35 Cloudy 70 21 68 20 94 94 S 5 7 29.80 1009 10 16 N/A
3:55 am 03:55 Cloudy 70 21 68 20 94 94 S 6 9 29.80 1009 10 16 N/A
4:15 am 04:15 Cloudy 68 20 66 19 94 94 SSE 8 13 29.80 1009 10 16 N/A
4:35 am 04:35 Cloudy 70 21 66 19 88 88 SSE 12 19 29.80 1009 10 16 N/A
4:55 am 04:55 Cloudy 68 20 66 19 94 94 SSE 13 20 29.77 1008 10 16 N/A
5:15 am 05:15 Cloudy 68 20 64 18 88 88 SSE 12 19 29.77 1008 10 16 N/A
5:35 am 05:35 Cloudy 68 20 64 18 88 88 SSE 10 17 29.77 1008 10 16 N/A
5:55 am 05:55 Cloudy 68 20 64 18 88 88 S 10 17 29.77 1008 10 16 N/A
6:15 am 06:15 Cloudy 68 20 64 18 88 88 SSE 12 19 29.77 1008 10 16 N/A
6:35 am 06:35 Cloudy 68 20 64 18 88 88 S 9 15 29.74 1007 10 16 N/A
6:55 am 06:55 Cloudy 68 20 64 18 88 88 SSE 13 20 29.74 1007 10 16 N/A
7:15 am 07:15 Cloudy 68 20 64 18 88 88 S 12 19 29.74 1007 10 16 N/A
7:35 am 07:35 Cloudy 68 20 64 18 88 88 SSW 16 26 29.74 1007 10 16 N/A
7:55 am 07:55 Cloudy 68 20 64 18 88 88 S 15 24 29.74 1007 10 16 N/A
8:15 am 08:15 Cloudy 68 20 64 18 88 88 S 9 15 29.71 1006 10 16 N/A
8:35 am 08:35 Cloudy 68 20 64 18 88 88 S 9 15 29.71 1006 10 16 N/A
8:55 am 08:55 Cloudy 68 20 64 18 88 88 S 12 19 29.71 1006 10 16 N/A
9:15 am 09:15 Cloudy 68 20 66 19 94 94 S 10 17 29.71 1006 10 16 N/A
9:35 am 09:35 Cloudy 68 20 66 19 94 94 S 12 19 29.71 1006 10 16 N/A
9:55 am 09:55 Cloudy 70 21 66 19 88 88 S 13 20 29.71 1006 10 16 N/A
10:15 am 10:15 Cloudy 70 21 66 19 88 88 S 9 15 29.68 1005 10 16 N/A
10:35 am 10:35 Cloudy 70 21 66 19 88 88 S 15 24 29.68 1005 10 16 N/A
10:55 am 10:55 Cloudy 70 21 66 19 88 88 SSE 9 15 29.68 1005 10 16 N/A
11:15 am 11:15 Mostly Cloudy 72 22 66 19 83 83 SSW 13 20 29.68 1005 10 16 N/A
11:35 am 11:35 Mostly Cloudy 72 22 66 19 83 83 WSW 7 11 29.68 1005 10 16 N/A
11:55 am 11:55 Mostly Cloudy 73 23 66 19 78 78 SSW 9 15 29.65 1004 10 16 N/A
12:15 pm 12:15 Cloudy 72 22 66 19 83 83 SSW 9 15 29.65 1004 10 16 N/A
12:35 pm 12:35 Cloudy 72 22 66 19 83 83 WSW 7 11 29.65 1004 10 16 N/A
12:55 pm 12:55 Cloudy with Heavy Rain 66 19 63 17 88 88 W 13 20 29.65 1004 4 6 N/A
1:15 pm 13:15 Cloudy with Light Rain 64 18 61 16 88 88 NW 17 28 29.65 1004 10 16 N/A
1:35 pm 13:35 Cloudy with Light Rain 63 17 59 15 88 88 NW 15 24 29.65 1004 7 11 N/A
2:15 pm 14:15 Cloudy 63 17 59 15 88 88 NW 12 19 29.62 1003 10 16 N/A
2:35 pm 14:35 Cloudy 63 17 59 15 88 88 NW 13 20 29.62 1003 10 16 N/A
2:55 pm 14:55 Cloudy 63 17 59 15 88 88 NNW 7 11 29.62 1003 10 16 N/A
3:15 pm 15:15 Cloudy 63 17 59 15 88 88 WNW 12 19 29.62 1003 10 16 N/A
3:35 pm 15:35 Mostly Cloudy 66 19 59 15 78 78 NNW 13 20 29.59 1002 10 16 N/A
3:55 pm 15:55 Partly Cloudy 64 18 57 14 78 78 NW 14 22 29.62 1003 10 16 N/A
4:15 pm 16:15 Mostly Cloudy 64 18 59 15 83 83 NW 10 17 29.59 1002 10 16 N/A
4:35 pm 16:35 Cloudy 64 18 59 15 83 83 NW 10 17 29.59 1002 10 16 N/A
4:55 pm 16:55 Cloudy 64 18 59 15 83 83 WNW 17 28 29.62 1003 10 16 N/A
5:15 pm 17:15 Cloudy 63 17 57 14 83 83 NW 14 22 29.62 1003 10 16 N/A
5:35 pm 17:35 Mostly Cloudy 63 17 57 14 83 83 NNW 8 13 29.62 1003 10 16 N/A
5:55 pm 17:55 Cloudy 63 17 59 15 88 88 NW 13 20 29.62 1003 10 16 N/A
6:15 pm 18:15 Cloudy 63 17 59 15 88 88 NNW 10 17 29.62 1003 10 16 N/A
6:35 pm 18:35 Cloudy with Light Rain 61 16 55 13 83 83 N 14 22 29.62 1003 10 16 N/A
6:55 pm 18:55 Cloudy with Light Rain 61 16 55 13 83 83 NNW 12 19 29.62 1003 10 16 N/A
7:15 pm 19:15 Cloudy 61 16 55 13 83 83 N 10 17 29.65 1004 10 16 N/A
7:35 pm 19:35 Mostly Cloudy 61 16 55 13 83 83 NNW 10 17 29.62 1003 10 16 N/A
7:55 pm 19:55 Partly Cloudy 61 16 55 13 83 83 NNW 12 19 29.62 1003 10 16 N/A
8:15 pm 20:15 Clear 61 16 55 13 83 83 N 10 17 29.62 1003 10 16 N/A
8:35 pm 20:35 Partly Cloudy 61 16 55 13 83 83 NNW 9 15 29.65 1004 10 16 N/A
8:55 pm 20:55 Partly Cloudy 61 16 55 13 83 83 NNW 10 17 29.65 1004 10 16 N/A
9:15 pm 21:15 Clear 59 15 55 13 88 88 NNW 12 19 29.62 1003 10 16 N/A
9:35 pm 21:35 Mostly Cloudy 59 15 54 12 82 82 NW 14 22 29.62 1003 10 16 N/A
9:55 pm 21:55 Cloudy 61 16 54 12 77 77 NNW 14 22 29.62 1003 10 16 N/A
10:15 pm 22:15 Cloudy 59 15 54 12 82 82 NNW 18 30 29.62 1003 10 16 N/A
10:35 pm 22:35 Cloudy 59 15 52 11 77 77 NW 25 41 29.62 1003 10 16 N/A
10:55 pm 22:55 Cloudy 59 15 52 11 77 77 NW 20 31 29.62 1003 10 16 N/A
11:15 pm 23:15 Cloudy 59 15 52 11 77 77 N 15 24 29.62 1003 10 16 N/A
11:35 pm 23:35 Cloudy 57 14 52 11 82 82 NW 21 33 29.65 1004 10 16 N/A
11:55 pm 23:55 Cloudy 55 13 50 10 82 82 NNW 10 17 29.65 1004 10 16 N/A

Powered by AerisWeather